User: anonymous   Login
Location: Fort Hays State University
(38.8712°N, 99.3432°W)
Time: 07:59:06
(UTC-05:00)
Language:

ALOS - Orbit

View from above orbital plane
View from above orbital plane
View from above satellite
View from above satellite

Ground track
Ground track

The orbit data is extracted from the following two-line orbital elements,

1 28931U 06002A   16145.53861374  .00000274  00000-0  63246-4 0  9993
2 28931  97.8871 185.3980 0002676  96.0160 264.1347 14.62190129550666
Epoch (UTC): 24 May 2016 12:55:36
Eccentricity: 0.0002676
inclination: 97.8871°
perigee height: 684 km
apogee height: 688 km
right ascension of ascending node: 185.3980°
argument of perigee: 96.0160°
revolutions per day: 14.62190129
mean anomaly at epoch: 264.1347°
orbit number at epoch: 55066

The dashed part of the orbit path shows where the satellite is in the earth's shadow,  

DLR